Regional Weather Roundup
Issued by NWS Northern Indiana

Home | Current Version | Previous Version | Graphics & Text | Print | Product List | Glossary On
Versions: 1 2 3 4 5 6 7 8 9 10 11 12 13 14 15 16 17 18 19 20 21 22 23 24 25 26 27 28 29 30 31 32 33 34 35 36 37 38 39 40 41 42 43 44 45 46 47 48 49 50
000
ASUS43 KIWX 022300
RWRIWX

KIWX WEATHER ROUNDUP
NATIONAL WEATHER SERVICE NORTHERN INDIANA
700 PM EDT SAT MAY 02 2015

NOTE: "FAIR" INDICATES FEW OR NO CLOUDS BELOW 12,000 FEET WITH NO
SIGNIFICANT WEATHER AND/OR OBSTRUCTIONS TO VISIBILITY.

* THESE STATIONS ARE NOT UNDER NWS QUALITY CONTROL. THEY ALSO MAY NOT
  REPORT WEATHER SUCH AS PRECIPITATION OR FOG.

INZ001>027-030000-
NORTHERN INDIANA

CITY           SKY/WX    TMP DP  RH WIND       PRES   REMARKS
SOUTH BEND     SUNNY     74  37  26 NW7       29.99S
GOSHEN         SUNNY     72  39  30 SW7       29.99S
ANGOLA*        SUNNY     73  39  29 NW8       30.00S
FORT WAYNE     MOSUNNY   73  40  30 W9        30.02S
PERU/GRISSOM   SUNNY     72  42  33 W9        30.00S

$$
INZ028>050-030000-
CENTRAL INDIANA

CITY           SKY/WX    TMP DP  RH WIND       PRES   REMARKS
LAFAYETTE      MOSUNNY   72  39  30 VRB7      30.00S
MUNCIE*        SUNNY     73  40  30 W8        30.02S
INDIANAPOLIS   MOSUNNY   72  43  35 W12       30.02R

$$
MIZ043>046-050>051-056>058-064>065-071>073-077>080-030000-
SOUTHWEST LOWER MICHIGAN

CITY           SKY/WX    TMP DP  RH WIND       PRES   REMARKS
BATTLE CREEK   SUNNY     73  37  27 NW9       30.00R
BENTON HARBOR  SUNNY     70  38  31 W7        29.99S
COLDWATER*     SUNNY     70  38  30 W8        29.99S
HILLSDALE*     SUNNY     72  34  24 W12       30.00F
HOLLAND        SUNNY     70  33  25 SW7       29.99F
GRAND RAPIDS   SUNNY     71  29  21 W12       29.99S
KALAMAZOO      SUNNY     73  39  29 NW7       30.00R
STURGIS*       SUNNY     72  41  33 SW7       29.99S
THREE RIVERS*  FAIR      72  38  29 NW8       29.99S

$$
OHZ001>008-015>018-024>025-030000-
NORTHWEST OHIO

CITY           SKY/WX    TMP DP  RH WIND       PRES   REMARKS
DEFIANCE       SUNNY     74  37  26 SW7       30.00S
FINDLAY        PTSUNNY   74  40  29 W12       30.00S
TOLEDO EXPRESS SUNNY     73  36  25 W7        29.99S
TOLEDO METCALF MOSUNNY   73  37  27 W12       29.99S
LIMA           MOSUNNY   71  42  35 W13       30.02S

$$
AND FOR LAKE MICHIGAN COASTAL AND OPEN LAKE BUOY OBSERVATIONS

STATION/POSITION TEMP    WIND        PRES    VSBY  WAVE
                 AIR SEA DIR/SP/G                  HT/PER
                 (F)     (DEG/KT/KT) (MB)    (MI)  (FT/S)
CALUMET HARBOR            60/  6/  7   N/A
MICHIGAN CITY     63      40/ 12/ 12   N/A
BURNS HARBOR      62      90/ 10/ 11 1015.2F
SAINT JOSEPH      76      CALM  /  1 1016.3S
4 MI NW BRIDGMAN  60 53  100/  4/  6   N/A           0
MICHIGAN CITY     56 51  100/  8/  8   N/A           0

$$
&&



USA.gov is the U.S. government's official web portal to all federal, state and local government web resources and services.